Location: Herm
(49.4830°N, 2.4500°W)
Time: 07:38:57
(UTC+01:00)

N. Korean satellite - Visible Passes

Search period start: 22 October 2017 00:00
Search period end: 31 October 2017 23:00
Orbit: 459 x 517 km, 97.2° (Epoch: 21 October)

Date Brightness Start Highest point End Pass type
(mag) Time Alt. Az. Time Alt. Az. Time Alt. Az.
22 Oct 8.6 19:44:17 10° SSW 19:47:22 29° W 19:50:28 10° NNW visible
23 Oct 9.9 07:07:39 10° NE 07:09:53 16° E 07:12:08 10° SE visible
23 Oct 7.2 19:20:30 10° S 19:23:56 56° W 19:27:22 10° NNW visible
24 Oct 6.4 18:57:06 10° SSE 19:00:34 75° ENE 19:04:02 10° N visible
25 Oct 6.9 18:34:01 10° SE 18:37:16 38° ENE 18:40:31 10° N visible
25 Oct 9.6 20:08:43 10° SW 20:10:59 16° W 20:13:15 10° NW visible
26 Oct 8.6 19:44:25 10° SSW 19:47:28 29° W 19:50:32 10° NW visible
27 Oct 9.9 07:07:41 10° NE 07:10:00 16° E 07:12:18 10° SE visible
27 Oct 7.2 19:20:36 10° S 19:24:01 55° W 19:27:26 10° NNW visible
28 Oct 6.3 18:57:11 10° SSE 19:00:38 76° ENE 19:04:05 10° N visible
29 Oct 6.9 17:34:05 10° SE 17:37:19 39° ENE 17:40:34 10° N visible
29 Oct 9.6 19:08:49 10° SW 19:11:03 16° W 19:13:16 10° NW visible
30 Oct 8.6 18:44:27 10° SSW 18:47:30 28° W 18:50:33 10° NW visible
31 Oct 9.8 06:07:39 10° NE 06:10:02 17° E 06:12:26 10° SE visible
31 Oct 7.2 18:20:38 10° S 18:24:02 54° W 18:27:26 10° NNW visible
